Find Starlink 3048

NORAD ID: 49148 Int'l Des: 2021-082 Owner: SPXS Country: US Constellation: starlink operational
LEOCIRCULAR

实时位置

正在加载3D地球...

关于 Starlink 3048

正在加载描述...

即将过境

Passes for default location (London). Set your location on the main map for personalized predictions.

高度历史

Loading altitude history...

两行轨道根数

1 49148U 21082U 26121.76681936 -.00001558 00000-0 -12549-3 0 9992
2 49148 69.9984 141.5711 0004016 265.6251 94.4449 14.97513777254399
Epoch: May 1, 2026 • Age: 9 hours

当前状态

高度 586.3 km
速度 7.57 km/s
星下点 58.52°N, 20.43°E
发射日期 Sep 14, 2021
运行时间 4.6 years
类型 internet

技术详情

分类 Payload
质量 297.00 kg
干质量 275.00 kg
总质量 297.00 kg
长度 0.20 m
直径 2.80 m
跨度 9.00 m
形状 Box + pan
制造商 SPXS
平台类型 Starlink
阶段状态 In Orbit
所有者/国家 SPXS/US

Most Searched